,,PA_Meas_PMT16A,,PR_Meas_QMR101_102,,RH_Meas_QMH101,,SR_Meas_QMS101,,TA_Meas_QMH101,,GenWind,,GenWind,
time,status,PA,status,PR,status,RH,status,SR,status,TA,status,DirAvg,status,SpdAvg,
2013-07-04, 07:54:04,VALID,916.516,VALID,0,VALID,96.8707,VALID,138.492,VALID,19.8588,VALID,51,VALID,0,
2013-07-04, 07:55:04,VALID,916.531,VALID,0,VALID,96.8784,VALID,136.128,VALID,19.8783,VALID,14,VALID,0,
2013-07-04, 08:32:04,VALID,917.082,VALID,0,VALID,95.6434,VALID,131.401,VALID,20.1513,VALID,326,VALID,0,
2013-07-04, 08:33:04,VALID,916.835,VALID,0,VALID,95.5671,VALID,155.79,VALID,20.1123,VALID,298,VALID,0,
2013-07-04, 08:34:04,VALID,916.954,VALID,0,VALID,95.6205,VALID,146.12,VALID,20.1498,VALID,74,VALID,0,
2013-07-04, 08:35:04,VALID,917.09,VALID,0,VALID,95.6357,VALID,128.822,VALID,20.2083,VALID,32,VALID,0,
2013-07-04, 08:38:04,VALID,916.911,VALID,0,VALID,95.2698,VALID,136.665,VALID,20.1708,VALID,23,VALID,0,
2013-07-04, 08:39:04,VALID,916.938,VALID,0,VALID,95.2851,VALID,139.781,VALID,20.2098,VALID,340,VALID,0,
2013-07-04, 08:40:04,VALID,917.029,VALID,0,VALID,95.1707,VALID,150.955,VALID,20.1693,VALID,269,VALID,0,
2013-07-04, 08:41:04,VALID,916.961,VALID,0,VALID,95.2546,VALID,181.79,VALID,20.2293,VALID,303,VALID,0,
2013-07-04, 08:42:04,VALID,917.033,VALID,0,VALID,95.4147,VALID,196.725,VALID,20.3464,VALID,322,VALID,0,
2013-07-04, 08:43:04,VALID,916.926,VALID,0.2,VALID,95.3613,VALID,204.675,VALID,20.3464,VALID,34,VALID,0,
2013-07-04, 08:44:04,VALID,916.763,VALID,0,VALID,95.3766,VALID,198.229,VALID,20.3854,VALID,28,VALID,0,
2013-07-04, 08:45:04,VALID,916.986,VALID,0,VALID,95.4375,VALID,195.65,VALID,20.4439,VALID,28,VALID,0,
2013-07-04, 08:46:04,VALID,916.929,VALID,0,VALID,95.3918,VALID,173.625,VALID,20.4829,VALID,29,VALID,0,
2013-07-04, 08:47:04,VALID,916.88,VALID,0,VALID,95.2927,VALID,163.418,VALID,20.4634,VALID,266,VALID,0,
2013-07-04, 08:48:04,VALID,916.997,VALID,0,VALID,95.0945,VALID,182.328,VALID,20.4244,VALID,30,VALID,0,
2013-07-04, 08:49:04,VALID,917.168,VALID,0,VALID,95.1174,VALID,185.766,VALID,20.4439,VALID,294,VALID,0,
2013-07-04, 08:50:04,VALID,916.967,VALID,0,VALID,94.7896,VALID,148.913,VALID,20.3854,VALID,116,VALID,0,
2013-07-04, 09:00:04,VALID,917.12,VALID,0,VALID,95.003,VALID,129.144,VALID,20.3253,VALID,39,VALID,0,
2013-07-04, 09:46:04,VALID,917.339,VALID,0,VALID,95.8035,VALID,129.574,VALID,19.6833,VALID,245,VALID,0,
2013-07-04, 09:47:04,VALID,917.351,VALID,0,VALID,95.7349,VALID,125.814,VALID,19.6053,VALID,349,VALID,0,
2013-07-04, 09:56:04,VALID,917.348,VALID,0,VALID,95.712,VALID,124.202,VALID,19.5078,VALID,29,VALID,0,
2013-07-04, 09:57:04,VALID,917.346,VALID,0,VALID,95.7501,VALID,152.674,VALID,19.5258,VALID,214,VALID,0,
2013-07-04, 09:58:04,VALID,917.353,VALID,0,VALID,95.8492,VALID,140.748,VALID,19.5663,VALID,89,VALID,0,
2013-07-04, 09:59:04,VALID,917.24,VALID,0.2,VALID,95.8035,VALID,146.657,VALID,19.5468,VALID,27,VALID,0,
2013-07-04, 10:00:04,VALID,917.456,VALID,0,VALID,95.7654,VALID,146.12,VALID,19.5273,VALID,330,VALID,0,
2013-07-04, 10:01:04,VALID,917.371,VALID,0,VALID,95.6967,VALID,172.765,VALID,19.5258,VALID,62,VALID,0,
2013-07-04, 10:02:04,VALID,917.425,VALID,0,VALID,95.7654,VALID,186.088,VALID,19.5648,VALID,48,VALID,0,
2013-07-04, 10:03:04,VALID,917.299,VALID,0,VALID,95.8263,VALID,211.767,VALID,19.6248,VALID,8,VALID,0,
2013-07-04, 10:04:04,VALID,917.438,VALID,0,VALID,95.7501,VALID,223.155,VALID,19.6053,VALID,222,VALID,0,
2013-07-04, 10:05:04,VALID,917.562,VALID,0,VALID,95.773,VALID,252.057,VALID,19.6623,VALID,51,VALID,0,
2013-07-04, 10:06:04,VALID,917.153,VALID,0,VALID,95.7425,VALID,238.412,VALID,19.7223,VALID,21,VALID,0,
2013-07-04, 10:07:04,VALID,916.979,VALID,0,VALID,95.6205,VALID,258.826,VALID,19.6833,VALID,198,VALID,0,
2013-07-04, 10:08:04,VALID,917.241,VALID,0,VALID,95.4604,VALID,275.909,VALID,19.6638,VALID,1,VALID,0,
2013-07-04, 10:09:04,VALID,917.06,VALID,0,VALID,95.4223,VALID,263.983,VALID,19.6818,VALID,25,VALID,0,
2013-07-04, 10:10:04,VALID,917.295,VALID,0,VALID,95.5671,VALID,282.785,VALID,19.7808,VALID,29,VALID,0,
2013-07-04, 10:11:04,VALID,917.37,VALID,0,VALID,95.4375,VALID,266.239,VALID,19.7403,VALID,6,VALID,0,
2013-07-04, 10:12:04,VALID,917.154,VALID,0,VALID,95.468,VALID,265.272,VALID,19.8198,VALID,28,VALID,0,
2013-07-04, 10:13:04,VALID,917.077,VALID,0,VALID,95.2851,VALID,272.471,VALID,19.8003,VALID,351,VALID,0,
2013-07-04, 10:14:04,VALID,917.265,VALID,0,VALID,95.3308,VALID,252.164,VALID,19.8393,VALID,359,VALID,0,
2013-07-04, 10:15:04,VALID,917.267,VALID,0,VALID,95.1402,VALID,302.877,VALID,19.8183,VALID,350,VALID,0,
2013-07-04, 10:16:04,VALID,917.16,VALID,0,VALID,95.3232,VALID,274.727,VALID,19.8978,VALID,322,VALID,0,
2013-07-04, 10:17:04,VALID,917.182,VALID,0,VALID,95.2775,VALID,257.107,VALID,19.9578,VALID,17,VALID,0,
2013-07-04, 10:18:04,VALID,917.22,VALID,0,VALID,94.5227,VALID,252.272,VALID,19.8978,VALID,1,VALID,0,
2013-07-04, 10:19:04,VALID,917.274,VALID,0,VALID,95.003,VALID,251.52,VALID,19.9173,VALID,323,VALID,0,
2013-07-04, 10:20:04,VALID,917.098,VALID,0,VALID,94.5685,VALID,258.289,VALID,19.9548,VALID,4,VALID,0,
2013-07-04, 10:21:04,VALID,917.135,VALID,0,VALID,94.5304,VALID,248.297,VALID,19.9173,VALID,10,VALID,0,
2013-07-04, 10:22:04,VALID,917.208,VALID,0,VALID,94.6523,VALID,223.048,VALID,19.9563,VALID,24,VALID,0,
2013-07-04, 10:23:04,VALID,917.15,VALID,0,VALID,94.8124,VALID,219.932,VALID,19.9758,VALID,28,VALID,0,
2013-07-04, 10:24:04,VALID,917.204,VALID,0,VALID,94.233,VALID,198.014,VALID,19.9758,VALID,330,VALID,0,
2013-07-04, 10:25:04,VALID,917.148,VALID,0,VALID,94.5685,VALID,198.659,VALID,19.9563,VALID,13,VALID,0,
2013-07-04, 10:26:04,VALID,917.181,VALID,0,VALID,94.7286,VALID,179.642,VALID,19.9548,VALID,18,VALID,0,
2013-07-04, 10:27:04,VALID,917.209,VALID,0,VALID,94.5761,VALID,156.434,VALID,19.9743,VALID,21,VALID,0,
2013-07-04, 10:28:04,VALID,917.307,VALID,0,VALID,94.7209,VALID,174.592,VALID,19.9953,VALID,351,VALID,0,
2013-07-04, 10:29:04,VALID,917.141,VALID,0,VALID,94.1492,VALID,170.079,VALID,19.9353,VALID,27,VALID,0,
2013-07-04, 10:30:04,VALID,917.304,VALID,0,VALID,94.2026,VALID,144.616,VALID,19.9158,VALID,347,VALID,0,
2013-07-04, 10:31:04,VALID,917.24,VALID,0,VALID,94.1568,VALID,146.872,VALID,19.8978,VALID,19,VALID,0,
2013-07-04, 10:32:04,VALID,917.305,VALID,0,VALID,94.0425,VALID,168.79,VALID,19.8183,VALID,11,VALID,0,
2013-07-04, 10:33:04,VALID,917.245,VALID,0,VALID,94.4846,VALID,174.162,VALID,19.8393,VALID,8,VALID,0,
2013-07-04, 10:34:04,VALID,917.232,VALID,0,VALID,94.1568,VALID,169.112,VALID,19.7613,VALID,4,VALID,0,
2013-07-04, 10:35:04,VALID,917.16,VALID,0,VALID,94.3931,VALID,159.872,VALID,19.7598,VALID,1,VALID,0,
2013-07-04, 10:36:04,VALID,917.047,VALID,0,VALID,94.5532,VALID,159.55,VALID,19.7613,VALID,10,VALID,0,
2013-07-04, 10:37:04,VALID,917.185,VALID,0,VALID,94.4999,VALID,165.244,VALID,19.7808,VALID,8,VALID,0,
2013-07-04, 10:38:04,VALID,917.214,VALID,0,VALID,94.1263,VALID,161.377,VALID,19.6428,VALID,359,VALID,0,
2013-07-04, 10:39:04,VALID,917.161,VALID,0,VALID,94.0958,VALID,138.921,VALID,19.6623,VALID,19,VALID,0,
2013-07-04, 10:40:04,VALID,917.1,VALID,0,VALID,94.599,VALID,137.847,VALID,19.7613,VALID,355,VALID,0,
2013-07-04, 10:41:04,VALID,917.137,VALID,0,VALID,94.7057,VALID,142.682,VALID,19.7613,VALID,29,VALID,0,
2013-07-04, 10:43:04,VALID,917.159,VALID,0,VALID,94.599,VALID,123.128,VALID,19.7028,VALID,9,VALID,0,
2013-07-04, 10:44:04,VALID,917.234,VALID,0,VALID,94.8734,VALID,143.004,VALID,19.7028,VALID,28,VALID,0,
2013-07-04, 10:45:04,VALID,917.203,VALID,0,VALID,94.6981,VALID,132.045,VALID,19.6848,VALID,3,VALID,0,
2013-07-04, 10:46:04,VALID,917.222,VALID,0,VALID,94.9878,VALID,123.88,VALID,19.6833,VALID,13,VALID,0,
2013-07-04, 10:52:04,VALID,917.343,VALID,0,VALID,94.7591,VALID,129.037,VALID,19.6443,VALID,347,VALID,0,
2013-07-04, 10:53:04,VALID,917.104,VALID,0.2,VALID,94.6295,VALID,147.517,VALID,19.6443,VALID,276,VALID,0,
2013-07-04, 10:54:04,VALID,917.285,VALID,0,VALID,94.599,VALID,156.327,VALID,19.5858,VALID,285,VALID,0,
2013-07-04, 10:55:04,VALID,917.174,VALID,0,VALID,94.9649,VALID,171.691,VALID,19.6038,VALID,101,VALID,0,
2013-07-04, 10:56:04,VALID,917.107,VALID,0.2,VALID,94.9039,VALID,179.427,VALID,19.6848,VALID,27,VALID,0,
2013-07-04, 10:57:04,VALID,917.23,VALID,0.2,VALID,94.9496,VALID,207.899,VALID,19.6833,VALID,30,VALID,0,
2013-07-04, 10:58:04,VALID,917.22,VALID,0.2,VALID,95.0488,VALID,207.576,VALID,19.7223,VALID,21,VALID,0,
2013-07-04, 10:59:04,VALID,917.161,VALID,0.2,VALID,95.125,VALID,186.84,VALID,19.7223,VALID,34,VALID,0,
2013-07-04, 11:00:04,VALID,917.165,VALID,0.2,VALID,95.1936,VALID,191.675,VALID,19.8003,VALID,22,VALID,0,
2013-07-04, 11:01:04,VALID,917.231,VALID,0.2,VALID,95.125,VALID,218.643,VALID,19.8213,VALID,353,VALID,0,
2013-07-04, 11:02:04,VALID,917.094,VALID,0,VALID,95.2851,VALID,231.643,VALID,19.8588,VALID,67,VALID,0,
2013-07-04, 11:03:04,VALID,917.035,VALID,0,VALID,95.2622,VALID,216.172,VALID,19.8978,VALID,356,VALID,0,
2013-07-04, 11:04:04,VALID,917.084,VALID,0,VALID,95.2241,VALID,206.072,VALID,19.8978,VALID,2,VALID,0,
2013-07-04, 11:05:04,VALID,917.09,VALID,0.2,VALID,94.9573,VALID,216.816,VALID,19.8603,VALID,26,VALID,0,
2013-07-04, 11:06:04,VALID,917.054,VALID,0,VALID,95.2927,VALID,215.957,VALID,19.9368,VALID,23,VALID,0,
2013-07-04, 11:07:04,VALID,917.058,VALID,0,VALID,94.9115,VALID,230.891,VALID,19.8588,VALID,275,VALID,0,
2013-07-04, 11:08:04,VALID,916.931,VALID,0,VALID,95.2317,VALID,258.503,VALID,19.9173,VALID,184,VALID,0,
2013-07-04, 11:09:04,VALID,916.955,VALID,0,VALID,95.0564,VALID,260.76,VALID,19.8978,VALID,33,VALID,0,
2013-07-04, 11:10:04,VALID,917.161,VALID,0,VALID,95.2165,VALID,274.405,VALID,19.9758,VALID,42,VALID,0,
2013-07-04, 11:11:04,VALID,916.919,VALID,0,VALID,95.3613,VALID,275.694,VALID,20.0733,VALID,16,VALID,0,
2013-07-04, 11:12:04,VALID,916.956,VALID,0,VALID,95.2393,VALID,239.164,VALID,20.1123,VALID,324,VALID,0,
2013-07-04, 11:13:04,VALID,916.928,VALID,0,VALID,95.003,VALID,211.444,VALID,20.0928,VALID,253,VALID,0,
2013-07-04, 11:14:04,VALID,916.829,VALID,0,VALID,95.1326,VALID,240.776,VALID,20.1708,VALID,321,VALID,0,
2013-07-04, 11:15:04,VALID,916.824,VALID,0,VALID,94.7362,VALID,265.057,VALID,20.1318,VALID,358,VALID,0,
2013-07-04, 11:16:04,VALID,916.941,VALID,0,VALID,95.1097,VALID,283.752,VALID,20.2293,VALID,29,VALID,0,
2013-07-04, 11:17:04,VALID,916.606,VALID,0,VALID,95.1631,VALID,251.627,VALID,20.3464,VALID,25,VALID,0,
2013-07-04, 11:18:04,VALID,916.834,VALID,0,VALID,95.1783,VALID,267.206,VALID,20.4049,VALID,37,VALID,0,
2013-07-04, 11:19:04,VALID,916.872,VALID,0,VALID,94.3321,VALID,282.57,VALID,20.3464,VALID,296,VALID,0,
2013-07-04, 11:20:04,VALID,916.969,VALID,0,VALID,93.5546,VALID,296,VALID,20.1903,VALID,310,VALID,0,
2013-07-04, 11:21:04,VALID,916.636,VALID,0,VALID,93.9129,VALID,265.702,VALID,20.1919,VALID,23,VALID,0,
2013-07-04, 11:22:04,VALID,916.841,VALID,0,VALID,94.2712,VALID,240.131,VALID,20.2293,VALID,25,VALID,0,
2013-07-04, 11:23:04,VALID,916.821,VALID,0,VALID,93.8214,VALID,254.528,VALID,20.2293,VALID,360,VALID,0,
2013-07-04, 11:24:04,VALID,916.758,VALID,0,VALID,93.6689,VALID,280.959,VALID,20.1513,VALID,31,VALID,0,
2013-07-04, 11:25:04,VALID,916.911,VALID,0,VALID,94.3855,VALID,271.826,VALID,20.2293,VALID,18,VALID,0,
2013-07-04, 11:26:04,VALID,917.761,VALID,0.2,VALID,94.4846,VALID,257.644,VALID,20.3074,VALID,30,VALID,0,
2013-07-04, 11:27:04,VALID,916.383,VALID,0,VALID,94.2254,VALID,219.502,VALID,20.3074,VALID,30,VALID,0,
2013-07-04, 11:28:04,VALID,916.85,VALID,0,VALID,94.2559,VALID,191.675,VALID,20.3058,VALID,325,VALID,0,
2013-07-04, 11:29:04,VALID,916.823,VALID,0,VALID,94.2788,VALID,189.956,VALID,20.3269,VALID,25,VALID,0,
2013-07-04, 11:30:04,VALID,916.746,VALID,0,VALID,94.0348,VALID,182.328,VALID,20.2684,VALID,349,VALID,0,
2013-07-04, 11:31:04,VALID,916.835,VALID,0,VALID,94.3321,VALID,181.468,VALID,20.2863,VALID,34,VALID,0,
2013-07-04, 11:32:04,VALID,916.767,VALID,0,VALID,95.0259,VALID,193.072,VALID,20.4244,VALID,36,VALID,0,
2013-07-04, 11:33:04,VALID,916.872,VALID,0,VALID,94.7972,VALID,192.749,VALID,20.4423,VALID,26,VALID,0,
2013-07-04, 11:34:04,VALID,916.82,VALID,0,VALID,95.0488,VALID,175.881,VALID,20.5219,VALID,21,VALID,0,
2013-07-04, 11:35:04,VALID,916.893,VALID,0,VALID,94.5761,VALID,174.162,VALID,20.5219,VALID,17,VALID,0,
2013-07-04, 11:36:04,VALID,916.747,VALID,0,VALID,94.6142,VALID,189.204,VALID,20.5024,VALID,27,VALID,0,
2013-07-04, 11:37:04,VALID,916.697,VALID,0,VALID,94.7819,VALID,198.874,VALID,20.4813,VALID,336,VALID,0,
2013-07-04, 11:38:04,INVALID,912.61,VALID,0,VALID,94.7362,VALID,197.369,VALID,20.5009,VALID,13,VALID,0,
2013-07-04, 11:39:04,VALID,917.261,VALID,0,VALID,94.1263,VALID,195.113,VALID,20.4829,VALID,293,VALID,0,
2013-07-04, 11:40:04,INVALID,911.983,VALID,0,VALID,93.8595,VALID,187.377,VALID,20.4244,VALID,311,VALID,0,
2013-07-04, 11:41:04,VALID,917.055,VALID,0.2,VALID,94.1644,VALID,185.981,VALID,20.4423,VALID,311,VALID,0,
2013-07-04, 11:42:04,VALID,916.488,VALID,0,VALID,94.5304,VALID,205.105,VALID,20.5609,VALID,311,VALID,0,
2013-07-04, 11:43:04,INVALID,909.479,VALID,0,VALID,94.5304,VALID,223.692,VALID,20.639,VALID,206,VALID,0,
2013-07-04, 11:44:04,VALID,916.633,VALID,0,VALID,94.2788,VALID,219.395,VALID,20.5789,VALID,216,VALID,0,
2013-07-04, 11:45:04,VALID,916.912,VALID,0,VALID,94.1187,VALID,208.006,VALID,20.6194,VALID,10,VALID,0,
2013-07-04, 11:46:04,VALID,916.769,VALID,0,VALID,93.9815,VALID,193.394,VALID,20.5789,VALID,10,VALID,0,
2013-07-04, 11:47:04,VALID,916.634,VALID,0,VALID,93.8138,VALID,178.137,VALID,20.5984,VALID,333,VALID,0,
2013-07-04, 11:48:04,VALID,916.968,VALID,0,VALID,93.7299,VALID,175.022,VALID,20.6194,VALID,333,VALID,0,
2013-07-04, 11:49:04,VALID,918.717,VALID,0.2,VALID,93.6613,VALID,179.534,VALID,20.6194,VALID,340,VALID,0,
2013-07-04, 11:50:04,VALID,916.745,VALID,0,VALID,93.3792,VALID,167.393,VALID,20.5789,VALID,13,VALID,0,
2013-07-04, 11:51:04,VALID,917.59,VALID,0,VALID,93.5698,VALID,160.087,VALID,20.5609,VALID,20,VALID,0,
2013-07-04, 11:52:04,VALID,916.796,VALID,0,VALID,93.6003,VALID,169.757,VALID,20.5009,VALID,19,VALID,0,
2013-07-04, 11:53:04,VALID,917.474,VALID,0,VALID,93.8214,VALID,184.047,VALID,20.5204,VALID,358,VALID,0,
2013-07-04, 11:54:04,VALID,916.719,VALID,0,VALID,94.1797,VALID,188.452,VALID,20.5399,VALID,14,VALID,0,
2013-07-04, 11:55:04,VALID,916.744,VALID,0,VALID,94.5151,VALID,180.071,VALID,20.5789,VALID,13,VALID,0,
2013-07-04, 11:56:04,VALID,916.633,VALID,0,VALID,93.89,VALID,176.311,VALID,20.5609,VALID,15,VALID,0,
2013-07-04, 11:57:04,VALID,916.731,VALID,0,VALID,93.8747,VALID,187.27,VALID,20.5414,VALID,16,VALID,0,
2013-07-04, 11:58:04,VALID,916.643,VALID,0,VALID,93.9052,VALID,208.651,VALID,20.5219,VALID,15,VALID,0,
2013-07-04, 11:59:04,VALID,916.629,VALID,0,VALID,94.2254,VALID,225.626,VALID,20.5414,VALID,21,VALID,0,
2013-07-04, 12:00:04,VALID,916.611,VALID,0,VALID,94.6218,VALID,227.883,VALID,20.6179,VALID,17,VALID,0,
2013-07-04, 12:01:04,VALID,916.933,VALID,0,VALID,93.8824,VALID,218.643,VALID,20.5414,VALID,265,VALID,0,
2013-07-04, 12:02:04,VALID,916.487,VALID,0,VALID,93.7909,VALID,205.213,VALID,20.4813,VALID,265,VALID,0,
2013-07-04, 12:03:04,INVALID,913.236,VALID,0,VALID,94.0958,VALID,189.204,VALID,20.5804,VALID,265,VALID,0,
2013-07-04, 12:04:04,VALID,916.287,VALID,0,VALID,94.3398,VALID,168.575,VALID,20.6374,VALID,330,VALID,0,
2013-07-04, 12:05:04,INVALID,911.682,VALID,0,VALID,93.6384,VALID,142.574,VALID,20.5594,VALID,334,VALID,0,
2013-07-04, 12:06:04,VALID,916.529,VALID,0,VALID,93.6308,VALID,127.962,VALID,20.5984,VALID,7,VALID,0,
2013-07-04, 12:07:04,VALID,916.667,VALID,0,VALID,93.5088,VALID,126.028,VALID,20.6194,VALID,25,VALID,0,
2013-07-04, 12:08:04,VALID,916.633,VALID,0,VALID,93.9052,VALID,129.681,VALID,20.5984,VALID,28,VALID,0,
2013-07-04, 12:09:04,VALID,916.625,VALID,0,VALID,93.9891,VALID,123.128,VALID,20.6194,VALID,18,VALID,0,
2013-07-04, 12:10:04,VALID,916.553,VALID,0,VALID,94.4465,VALID,120.549,VALID,20.6959,VALID,21,VALID,0,
2013-07-04, 12:11:04,VALID,916.496,VALID,0,VALID,94.1339,VALID,125.276,VALID,20.6374,VALID,7,VALID,0,
2013-07-04, 12:12:04,VALID,917.836,VALID,0,VALID,93.6689,VALID,123.02,VALID,20.5789,VALID,10,VALID,0,
2013-07-04, 12:13:04,VALID,916.896,VALID,0,VALID,93.7299,VALID,131.938,VALID,20.5789,VALID,12,VALID,0,
2013-07-04, 12:14:04,VALID,917.746,VALID,0,VALID,93.9662,VALID,152.352,VALID,20.6179,VALID,12,VALID,0,
2013-07-04, 12:15:04,VALID,916.619,VALID,0,VALID,94.0196,VALID,163.203,VALID,20.678,VALID,7,VALID,0,
2013-07-04, 12:16:04,VALID,916.651,VALID,0,VALID,93.8824,VALID,167.716,VALID,20.6569,VALID,7,VALID,0,
2013-07-04, 12:17:04,VALID,916.608,VALID,0,VALID,94.0348,VALID,161.806,VALID,20.7154,VALID,7,VALID,0,
2013-07-04, 12:18:04,VALID,916.65,VALID,0,VALID,94.0806,VALID,154.5,VALID,20.7544,VALID,14,VALID,0,
2013-07-04, 12:19:04,VALID,916.732,VALID,0,VALID,94.2559,VALID,147.194,VALID,20.834,VALID,324,VALID,0,
2013-07-04, 12:20:04,VALID,916.903,VALID,0,VALID,94.0653,VALID,147.302,VALID,20.834,VALID,327,VALID,0,
2013-07-04, 12:21:04,VALID,916.441,VALID,0,VALID,93.303,VALID,151.17,VALID,20.7154,VALID,37,VALID,0,
2013-07-04, 12:22:04,VALID,917.025,VALID,0,VALID,93.1124,VALID,150.418,VALID,20.6764,VALID,17,VALID,0,
2013-07-04, 12:23:04,VALID,917.816,VALID,0,VALID,93.5622,VALID,152.674,VALID,20.717,VALID,300,VALID,0,
2013-07-04, 12:24:04,VALID,916.448,VALID,0,VALID,93.0514,VALID,158.368,VALID,20.6585,VALID,263,VALID,0,
2013-07-04, 12:25:04,VALID,916.606,VALID,0,VALID,93.0667,VALID,160.732,VALID,20.6585,VALID,32,VALID,0,
2013-07-04, 12:26:04,VALID,916.609,VALID,0,VALID,93.4326,VALID,162.129,VALID,20.6585,VALID,294,VALID,0,
2013-07-04, 12:27:04,VALID,916.513,VALID,0,VALID,93.3106,VALID,170.724,VALID,20.6374,VALID,165,VALID,0,
2013-07-04, 12:28:04,VALID,916.62,VALID,0,VALID,93.2572,VALID,178.352,VALID,20.678,VALID,211,VALID,0,
2013-07-04, 12:29:04,VALID,916.685,VALID,0,VALID,93.0438,VALID,178.46,VALID,20.6179,VALID,277,VALID,0,
2013-07-04, 12:30:04,VALID,916.822,VALID,0,VALID,92.8761,VALID,188.774,VALID,20.639,VALID,19,VALID,0,
2013-07-04, 12:31:04,VALID,916.745,VALID,0,VALID,93.2268,VALID,202.956,VALID,20.6585,VALID,31,VALID,0,
2013-07-04, 12:32:04,VALID,918.679,VALID,0,VALID,93.3106,VALID,215.312,VALID,20.678,VALID,300,VALID,0,
2013-07-04, 12:33:04,INVALID,916.125,VALID,0.2,VALID,93.2572,VALID,229.172,VALID,20.6585,VALID,262,VALID,0,
2013-07-04, 12:34:04,VALID,916.35,VALID,0,VALID,93.2954,VALID,244.106,VALID,20.639,VALID,270,VALID,0,
2013-07-04, 12:35:04,VALID,916.551,VALID,0,VALID,93.4936,VALID,245.288,VALID,20.6975,VALID,350,VALID,0,
2013-07-04, 12:36:04,VALID,916.431,VALID,0,VALID,91.7859,VALID,226.379,VALID,20.4829,VALID,303,VALID,0,
2013-07-04, 12:37:04,VALID,916.453,VALID,0,VALID,92.6397,VALID,225.197,VALID,20.5024,VALID,30,VALID,0,
2013-07-04, 12:38:04,VALID,916.435,VALID,0,VALID,93.5088,VALID,276.016,VALID,20.639,VALID,307,VALID,0,
2013-07-04, 12:39:04,VALID,916.501,VALID,0,VALID,93.5164,VALID,294.496,VALID,20.6585,VALID,232,VALID,0,
2013-07-04, 12:40:04,VALID,916.409,VALID,0,VALID,93.4021,VALID,302.017,VALID,20.6179,VALID,62,VALID,0,
2013-07-04, 12:41:04,VALID,916.175,VALID,0,VALID,92.3882,VALID,305.133,VALID,20.5399,VALID,306,VALID,0,
2013-07-04, 12:42:04,VALID,916.563,VALID,0,VALID,92.8151,VALID,316.844,VALID,20.6194,VALID,355,VALID,0,
2013-07-04, 12:43:04,VALID,916.395,VALID,0,VALID,93.4097,VALID,328.018,VALID,20.7349,VALID,295,VALID,0,
2013-07-04, 12:44:04,VALID,916.607,VALID,0,VALID,92.4797,VALID,358.853,VALID,20.6975,VALID,246,VALID,0,
2013-07-04, 12:45:04,VALID,916.471,VALID,0,VALID,93.1048,VALID,401.4,VALID,20.7739,VALID,12,VALID,0,
2013-07-04, 12:46:04,VALID,917.224,VALID,0,VALID,93.4859,VALID,412.467,VALID,20.9316,VALID,340,VALID,0,
2013-07-04, 12:47:04,INVALID,912.49,VALID,0,VALID,92.8989,VALID,427.508,VALID,20.891,VALID,298,VALID,0,
2013-07-04, 12:48:04,VALID,916.297,VALID,0,VALID,92.3577,VALID,437.93,VALID,20.93,VALID,233,VALID,0,
2013-07-04, 12:49:04,VALID,916.463,VALID,0,VALID,92.1366,VALID,472.419,VALID,20.9495,VALID,301,VALID,0,
2013-07-04, 12:50:04,VALID,916.257,VALID,0,VALID,91.7478,VALID,511.742,VALID,20.969,VALID,341,VALID,0,
2013-07-04, 12:51:04,VALID,916.267,VALID,0,VALID,92.9828,VALID,470.915,VALID,21.1657,VALID,322,VALID,0,
2013-07-04, 12:52:04,VALID,916.207,VALID,0,VALID,91.359,VALID,407.095,VALID,21.1055,VALID,329,VALID,0,
2013-07-04, 12:53:04,VALID,916.131,VALID,0,VALID,91.9994,VALID,348.647,VALID,21.2811,VALID,17,VALID,0,
2013-07-04, 12:54:04,VALID,916.32,VALID,0,VALID,91.0846,VALID,325.762,VALID,21.2616,VALID,309,VALID,0,
2013-07-04, 12:55:04,INVALID,913.993,VALID,0,VALID,90.4976,VALID,320.282,VALID,21.2421,VALID,321,VALID,0,
2013-07-04, 12:56:04,VALID,916.186,VALID,0,VALID,89.7047,VALID,311.364,VALID,21.1445,VALID,319,VALID,0,
2013-07-04, 12:57:04,VALID,916.263,VALID,0,VALID,90.7415,VALID,292.67,VALID,21.125,VALID,6,VALID,0,
2013-07-04, 12:58:04,VALID,916.122,VALID,0,VALID,91.5191,VALID,266.239,VALID,21.1657,VALID,248,VALID,0,
2013-07-04, 12:59:04,VALID,916.103,VALID,0,VALID,91.8164,VALID,240.991,VALID,21.1836,VALID,23,VALID,0,
2013-07-04, 13:00:04,VALID,916.136,VALID,0,VALID,92.2205,VALID,220.254,VALID,21.1836,VALID,30,VALID,0,
2013-07-04, 13:01:04,VALID,916.008,VALID,0,VALID,90.6577,VALID,215.097,VALID,21.086,VALID,41,VALID,0,
2013-07-04, 13:02:04,VALID,915.937,VALID,0,VALID,91.237,VALID,210.692,VALID,21.164,VALID,357,VALID,0,
2013-07-04, 13:03:04,VALID,916.204,VALID,0,VALID,90.894,VALID,198.336,VALID,21.1836,VALID,358,VALID,0,
2013-07-04, 13:04:04,VALID,915.892,VALID,0,VALID,90.7034,VALID,192.535,VALID,21.164,VALID,24,VALID,0,
2013-07-04, 13:05:04,VALID,916.19,VALID,0,VALID,91.5039,VALID,207.039,VALID,21.1852,VALID,22,VALID,0,
2013-07-04, 13:06:04,VALID,916.238,VALID,0,VALID,91.0693,VALID,229.387,VALID,21.1445,VALID,173,VALID,0,
2013-07-04, 13:07:04,VALID,915.838,VALID,0,VALID,91.2294,VALID,261.942,VALID,21.1657,VALID,27,VALID,0,
2013-07-04, 13:08:04,VALID,914.372,VALID,0,VALID,91.1989,VALID,262.586,VALID,21.1266,VALID,35,VALID,0,
2013-07-04, 13:09:04,INVALID,916.431,VALID,0,VALID,90.8559,VALID,250.23,VALID,21.086,VALID,300,VALID,0,
2013-07-04, 13:10:04,VALID,914.954,VALID,0,VALID,91.6258,VALID,232.288,VALID,21.1461,VALID,38,VALID,0,
2013-07-04, 13:11:04,VALID,915.832,VALID,0,VALID,91.824,VALID,251.735,VALID,21.1852,VALID,16,VALID,0,
2013-07-04, 13:12:04,VALID,915.802,VALID,0,VALID,90.9778,VALID,238.842,VALID,21.1657,VALID,344,VALID,0,
2013-07-04, 13:13:04,VALID,915.758,VALID,0,VALID,90.8483,VALID,188.344,VALID,21.1657,VALID,179,VALID,0,
2013-07-04, 13:14:04,VALID,915.916,VALID,0,VALID,90.9016,VALID,224.23,VALID,21.1657,VALID,99,VALID,0,
2013-07-04, 13:15:04,VALID,915.743,VALID,0,VALID,91.1684,VALID,194.039,VALID,21.2047,VALID,5,VALID,0,
2013-07-04, 13:16:04,VALID,915.718,VALID,0,VALID,91.4505,VALID,152.566,VALID,21.1852,VALID,37,VALID,0,
2013-07-04, 13:21:04,VALID,914.625,VALID,0,VALID,92.0527,VALID,151.062,VALID,20.8535,VALID,5,VALID,0,
2013-07-04, 13:22:04,VALID,915.793,VALID,0,VALID,92.655,VALID,215.42,VALID,20.834,VALID,22,VALID,0,
2013-07-04, 13:23:04,VALID,917.033,VALID,0,VALID,92.4263,VALID,221.973,VALID,20.7349,VALID,136,VALID,0,
2013-07-04, 13:24:04,VALID,915.904,VALID,0,VALID,90.6882,VALID,157.616,VALID,20.5204,VALID,309,VALID,0,
2013-07-04, 13:25:04,VALID,915.743,VALID,0,VALID,91.2523,VALID,144.723,VALID,20.5024,VALID,145,VALID,0,
2013-07-04, 13:31:04,VALID,915.681,VALID,0,VALID,92.0985,VALID,173.195,VALID,20.0133,VALID,279,VALID,0,
2013-07-04, 13:32:04,VALID,916.034,VALID,0,VALID,93.0285,VALID,163.418,VALID,20.0343,VALID,54,VALID,0,
2013-07-04, 13:33:04,VALID,915.652,VALID,0,VALID,93.2877,VALID,155.252,VALID,19.9953,VALID,233,VALID,0,
2013-07-04, 13:34:04,VALID,915.675,VALID,0,VALID,93.5088,VALID,165.997,VALID,19.9173,VALID,7,VALID,0,
2013-07-04, 13:35:04,VALID,916.494,VALID,0.2,VALID,93.8747,VALID,163.633,VALID,19.9173,VALID,250,VALID,0,
2013-07-04, 13:36:04,VALID,915.411,VALID,0,VALID,93.6537,VALID,191.245,VALID,19.8198,VALID,359,VALID,0,